Terug naar catalogus

STARLINK-38065

ActiefCommunicatieSSO
NORAD 69982·PAYLOAD·🇺🇸 United States

Gelanceerd Jul 11, 2026 vanaf Vandenberg Space Force Base

Loading…

Volgende Passages (komende 24 uur)

TLE

VersSource: CelesTrak SupGP

Epoch: Sep 14, 2026, 23:08 UTC

1 69982C 26159H   26257.96437500 -.02542200  00000+0 -34979-1 0  2579
2 69982  97.2851  99.7023 0002106  96.0665  76.4751 15.58589146    12

Volg STARLINK-38065 in realtime met AllMySat

Download on the App Store